Regional Weather Roundup
Issued by NWS

Home | Current Version | Previous Version | Graphics & Text | Print | Product List | Glossary On
Versions: 1 2 3 4 5 6 7 8 9 10 11 12 13 14 15 16 17 18 19 20 21 22 23 24 25 26 27 28 29 30 31 32 33 34 35 36 37 38 39 40 41 42 43 44 45 46 47 48 49 50
000
ASUS43 KBIS 300310
RWRND

NORTH DAKOTA REGIONAL WEATHER ROUNDUP
NATIONAL WEATHER SERVICE BISMARCK ND
1000 PM CDT MON SEP 29 2014

NOTE: "FAIR" INDICATES FEW OR NO CLOUDS BELOW 12,000 FEET WITH NO
SIGNIFICANT WEATHER AND/OR OBSTRUCTIONS TO VISIBILITY.


NDZ001>003-009>011-017-300400-
NORTHWEST NORTH DAKOTA

CITY           SKY/WX    TMP DP  RH WIND       PRES   REMARKS
WILLISTON      CLOUDY    52  48  86 SE6       29.91F
MINOT          CLOUDY    51  45  79 E12       29.98F
MINOT AFB      CLOUDY    51  48  87 E9        29.98F
$$

NDZ018>021-031>035-040>046-300400-
SOUTHWEST NORTH DAKOTA

CITY           SKY/WX    TMP DP  RH WIND       PRES   REMARKS
BISMARCK       CLOUDY    55  48  77 E10       29.98F
DICKINSON      LGT RAIN  52  49  89 SE15      29.90F
GARRISON         N/A     54  48  80 SE16G22   29.96F
HETTINGER ARPT CLOUDY    52  50  93 E12       29.91F
$$

NDZ004>008-012>016-024-026-027-054-300400-
NORTHEAST NORTH DAKOTA

CITY           SKY/WX    TMP DP  RH WIND       PRES   REMARKS
GRAND FORKS    CLEAR     50  45  83 E9        30.07F
GRND FRKS AFB  PTCLDY    47  47  99 E8        30.08F
DEVILS LAKE    PTCLDY    48  41  76 E7        30.03F
$$

NDZ022-023-025-028>030-036>039-047>053-300400-
SOUTHEAST NORTH DAKOTA

CITY           SKY/WX    TMP DP  RH WIND       PRES   REMARKS
FARGO          CLEAR     53  45  74 SE10      30.07F
JAMESTOWN      CLEAR     49  47  93 E7        30.02F
$$




USA.gov is the U.S. government's official web portal to all federal, state and local government web resources and services.